TimeCDT,TemperatureF,Dew PointF,Humidity,Sea Level PressureIn,VisibilityMPH,Wind Direction,Wind SpeedMPH,Gust SpeedMPH,PrecipitationIn,Events,Conditions,WindDirDegrees,DateUTC
12:53 AM,17.1,9.0,71,30.26,10.0,NW,18.4,-,N/A,,Clear,320,2013-04-09 05:53:00
1:53 AM,15.1,7.0,70,30.27,10.0,NW,15.0,-,N/A,,Clear,310,2013-04-09 06:53:00
2:53 AM,14.0,6.1,71,30.27,10.0,NW,12.7,-,N/A,,Clear,320,2013-04-09 07:53:00
3:53 AM,12.9,6.1,74,30.29,10.0,NW,12.7,-,N/A,,Clear,320,2013-04-09 08:53:00
4:53 AM,12.0,5.0,73,30.30,10.0,NW,10.4,-,N/A,,Partly Cloudy,320,2013-04-09 09:53:00
5:53 AM,12.0,7.0,80,30.31,9.0,NNW,12.7,-,0.00,Snow,Light Snow,330,2013-04-09 10:53:00
6:22 AM,10.4,6.8,85,30.25,10.0,NNW,12.7,-,0.00,,Partly Cloudy,330,2013-04-09 11:22:00
6:53 AM,10.9,6.1,81,30.33,10.0,NNW,10.4,-,0.00,,Clear,330,2013-04-09 11:53:00
7:53 AM,10.9,6.1,81,30.36,10.0,NW,10.4,-,N/A,,Clear,320,2013-04-09 12:53:00
8:53 AM,14.0,7.0,74,30.37,10.0,NW,12.7,-,N/A,,Clear,320,2013-04-09 13:53:00
9:53 AM,17.1,8.1,68,30.37,10.0,North,9.2,-,N/A,,Clear,350,2013-04-09 14:53:00
10:53 AM,21.0,12.0,68,30.37,10.0,NNW,10.4,-,N/A,,Clear,330,2013-04-09 15:53:00
11:53 AM,25.0,14.0,63,30.38,10.0,North,12.7,-,N/A,,Clear,350,2013-04-09 16:53:00
12:53 PM,27.0,17.1,66,30.37,10.0,NNW,12.7,-,N/A,,Clear,330,2013-04-09 17:53:00
1:53 PM,28.9,16.0,58,30.36,10.0,NW,17.3,-,N/A,,Clear,320,2013-04-09 18:53:00
2:53 PM,30.0,14.0,51,30.37,10.0,NNW,16.1,-,N/A,,Clear,330,2013-04-09 19:53:00
3:53 PM,30.9,14.0,50,30.36,10.0,NW,12.7,-,N/A,,Clear,320,2013-04-09 20:53:00
4:53 PM,32.0,12.9,45,30.34,10.0,North,10.4,-,N/A,,Clear,350,2013-04-09 21:53:00
5:53 PM,32.0,12.9,45,30.36,10.0,NNW,11.5,-,N/A,,Clear,330,2013-04-09 22:53:00
6:53 PM,30.9,10.9,43,30.36,10.0,NNW,12.7,-,N/A,,Clear,340,2013-04-09 23:53:00
7:53 PM,28.0,12.0,51,30.34,10.0,NNW,5.8,-,N/A,,Clear,340,2013-04-10 00:53:00
8:53 PM,27.0,12.0,53,30.34,10.0,NNW,6.9,-,N/A,,Clear,340,2013-04-10 01:53:00
9:53 PM,26.1,10.9,53,30.35,10.0,NNW,6.9,-,N/A,,Clear,340,2013-04-10 02:53:00
10:53 PM,24.1,12.0,60,30.35,10.0,NNW,5.8,-,N/A,,Clear,340,2013-04-10 03:53:00
11:53 PM,23.0,12.0,63,30.35,10.0,NNW,9.2,-,N/A,,Clear,330,2013-04-10 04:53:00